Wind_Speed
38 38 38 37 37 38 39 40 41 43 43 44 44 46 47 48 48 46 43 40 40 40 41 44 47 48 47 45 42 39 40 41 41 41 42 43 43 43 45 46 48 49 48 49 52 53 54 52 52 54 53 51 52 55 57 59 60 61 61 62 64 68 71 74 76 77 79 81 82 81 81 82 83 83 80 72 60 50 45 45 46 46 48 51 55
39 38 38 38 39 40 41 42 43 43 44 45 46 48 49 50 49 47 43 42 41 40 41 44 47 48 46 43 41 40 41 43 43 43 43 43 42 42 44 46 48 48 48 51 54 56 56 56 55 56 54 53 55 57 58 59 60 62 63 64 67 71 73 76 78 79 78 79 81 84 84 85 87 89 87 80 71 59 51 49 49 49 50 52 55
40 39 39 39 40 41 43 44 44 44 44 45 47 50 51 51 51 47 43 40 38 38 41 44 47 47 43 41 42 43 43 45 46 45 44 43 42 43 45 46 48 49 50 53 56 56 58 59 58 57 56 56 57 57 58 59 61 63 66 68 70 73 77 79 79 80 79 78 80 84 87 89 90 92 92 87 78 67 57 53 52 51 51 53 55
41 41 40 41 42 43 44 45 45 45 45 47 49 51 52 52 48 43 39 37 37 40 45 47 48 47 45 43 44 45 47 49 49 45 43 43 43 44 46 46 48 51 53 55 56 56 60 62 61 59 57 56 56 57 59 61 63 65 68 71 74 76 79 81 81 81 81 81 81 84 89 92 94 96 95 91 83 72 61 55 53 53 53 55 55
44 43 42 43 43 44 45 45 45 45 47 49 50 50 50 48 41 36 36 38 40 45 49 50 49 48 47 46 46 48 49 49 47 43 42 43 43 44 46 48 50 53 54 55 57 59 62 64 63 60 57 56 58 59 61 63 65 68 71 74 77 79 81 83 83 82 82 83 85 87 91 94 97 99 99 94 85 75 65 57 53 53 54 55 55
46 45 44 45 45 45 45 46 46 45 47 48 48 48 49 46 39 36 39 42 46 49 50 50 50 49 49 48 50 50 50 48 44 40 40 41 41 43 47 50 52 54 55 57 59 62 63 64 63 60 57 58 60 61 64 67 69 72 75 77 80 82 83 84 84 84 84 86 88 91 94 96 99 102 101 95 86 76 65 57 54 55 54 53 54
48 47 47 47 47 47 47 47 46 45 45 47 49 51 50 47 43 43 45 47 48 50 49 49 50 50 50 51 52 52 51 48 43 39 39 41 41 44 47 50 54 57 58 59 61 62 64 64 64 62 60 61 62 64 68 71 73 75 77 79 81 83 84 85 86 86 86 89 92 95 97 99 102 103 100 94 85 74 64 57 54 56 55 53 53
50 49 49 49 49 49 48 49 47 45 43 43 47 50 48 46 46 47 46 47 47 48 50 53 54 55 56 57 57 56 53 48 44 42 43 45 47 48 50 52 56 60 61 62 63 65 66 67 65 64 63 64 65 68 71 73 75 77 79 80 82 84 86 87 88 89 90 92 95 98 100 103 104 102 98 91 81 71 64 58 55 55 54 53 52
52 50 50 50 50 50 50 50 48 46 43 40 43 50 53 51 51 51 50 51 51 52 55 57 57 58 60 61 61 61 60 57 54 52 53 55 56 54 53 55 60 63 65 66 67 68 67 66 65 65 66 66 68 70 73 75 77 78 79 82 84 86 89 90 91 92 95 97 99 102 103 104 104 100 95 86 76 68 63 59 57 55 52 50 50
53 52 51 52 52 52 52 52 49 48 46 41 42 50 56 56 55 54 54 54 54 56 58 59 59 58 59 60 62 63 64 64 63 62 64 65 62 56 55 59 63 65 67 68 69 68 66 65 65 66 67 69 70 72 74 76 78 80 82 84 86 88 90 92 94 96 98 100 103 104 105 105 103 98 90 82 72 66 62 59 57 56 50 46 48
54 53 53 53 53 53 53 53 51 49 48 46 45 48 52 54 55 55 56 56 57 57 60 61 61 60 60 61 62 62 63 64 64 63 64 63 60 57 58 61 65 68 69 69 68 66 64 64 65 67 69 71 72 73 76 79 81 82 84 85 87 90 92 94 96 98 100 103 104 105 105 104 101 95 86 78 70 65 62 59 56 55 50 45 45
56 55 54 55 55 54 54 53 51 50 49 49 48 48 49 51 53 54 56 58 58 59 60 63 64 63 64 64 64 64 63 63 62 60 59 57 57 58 60 63 67 69 68 68 67 65 65 66 68 70 71 73 74 76 79 81 82 83 85 87 89 92 95 96 97 99 101 103 104 105 104 102 99 92 83 76 70 63 60 59 57 54 50 44 44
59 57 57 57 57 56 55 53 52 51 50 50 50 50 51 52 53 55 57 58 59 60 62 64 65 65 66 66 65 65 64 63 62 61 58 56 56 58 62 64 67 68 68 67 67 67 69 71 73 74 74 75 78 81 83 83 84 86 88 90 93 95 97 98 99 101 103 103 103 103 102 100 95 88 81 75 69 63 59 59 57 53 49 45 44
63 62 61 60 59 58 57 55 53 52 52 52 52 52 53 54 56 58 60 61 62 63 64 66 66 66 67 67 65 64 64 63 62 60 59 57 57 59 63 65 67 68 68 68 69 71 73 75 75 73 73 77 81 84 85 85 86 88 90 92 96 97 98 99 101 103 104 103 103 102 100 96 90 84 79 73 67 62 58 58 58 54 48 45 44
67 66 65 64 63 62 60 58 56 55 54 54 54 54 56 57 59 61 63 64 65 66 68 69 67 65 65 64 63 63 64 64 62 61 61 61 61 63 66 68 70 71 71 72 74 75 75 75 74 71 73 78 82 84 85 86 87 89 91 94 96 98 100 100 101 102 103 103 103 101 97 91 85 81 76 70 64 60 58 57 58 53 48 46 43
69 69 68 67 66 65 63 61 59 58 56 56 55 56 58 59 61 63 65 66 67 68 69 69 66 64 62 62 62 62 62 63 64 65 65 65 65 67 69 71 74 76 77 78 77 76 74 75 75 75 78 81 84 85 87 88 88 89 91 93 95 97 99 101 100 101 103 104 102 98 92 86 82 78 73 68 62 58 57 58 56 51 46 46 43
70 70 69 68 67 65 64 63 62 61 59 58 58 59 60 61 63 65 67 68 68 68 67 66 65 64 62 61 61 62 63 64 66 68 68 67 68 70 72 74 76 78 81 81 77 72 72 74 77 80 83 84 85 87 88 88 88 89 91 93 95 97 99 100 101 102 104 104 100 94 88 83 79 75 70 65 60 56 56 57 55 49 45 44 42
71 71 70 68 67 66 64 64 63 63 62 61 61 61 63 64 66 68 69 69 67 66 65 65 64 63 61 59 60 61 63 66 69 71 72 72 73 73 75 78 80 81 83 81 74 69 73 79 84 86 87 86 86 87 88 89 90 91 93 94 96 97 100 102 104 104 104 101 95 90 86 82 77 72 67 62 58 56 55 54 52 48 44 42 39
72 71 70 68 67 66 65 64 64 64 64 64 64 64 66 67 69 70 70 68 65 64 65 65 64 62 60 60 60 62 63 66 68 71 74 76 77 78 79 82 83 85 85 82 77 77 81 85 87 87 86 85 87 89 90 92 93 94 95 96 97 100 102 104 105 105 102 96 90 86 84 80 76 71 67 61 57 55 53 51 47 45 43 41 37
73 72 70 69 67 66 66 65 64 64 65 66 67 68 68 68 68 68 67 67 66 66 66 65 63 62 61 62 63 65 66 67 68 70 73 76 79 81 84 85 86 86 86 85 84 82 81 81 83 85 87 88 90 92 93 94 95 95 96 98 100 103 104 105 104 101 96 91 87 84 81 78 75 71 66 61 57 54 52 48 44 42 42 40 35
73 72 71 69 68 67 66 65 65 66 68 69 70 70 70 69 68 68 68 68 68 68 67 66 65 64 65 67 68 67 66 65 66 67 69 72 76 79 82 83 82 81 80 81 82 81 80 81 84 87 89 90 91 92 93 94 96 97 99 101 103 104 104 103 100 95 90 87 85 83 80 77 74 70 64 60 54 51 49 45 41 39 40 39 35
73 72 71 69 68 67 66 65 66 68 70 71 71 71 71 71 70 70 70 70 70 70 71 70 70 70 70 71 71 70 69 67 66 65 66 67 70 73 75 76 77 75 75 76 78 79 81 83 85 87 88 90 91 93 94 95 97 99 101 102 103 102 101 98 94 90 87 85 84 82 80 77 73 68 63 58 51 47 45 43 38 37 39 38 34
72 70 68 67 67 67 66 66 67 70 71 72 72 73 73 73 72 72 73 73 73 73 73 73 73 74 73 73 72 72 72 72 70 69 68 67 68 69 70 72 73 73 74 75 77 79 81 83 85 87 89 90 92 93 95 96 98 99 100 101 100 98 95 92 89 87 86 85 83 81 79 75 70 66 61 55 49 43 42 40 36 34 37 36 32
71 69 67 68 69 69 68 68 69 71 72 73 74 74 74 74 73 73 74 74 74 74 74 74 75 75 75 74 74 74 74 73 73 72 71 70 69 69 70 70 71 72 74 75 77 79 81 83 85 87 89 90 92 93 94 95 96 97 98 97 95 92 90 88 88 88 87 85 83 79 76 71 67 62 57 51 46 41 39 37 33 33 35 35 31
68 69 70 70 71 70 69 70 71 73 74 74 75 74 74 74 74 75 75 75 76 76 77 76 76 77 77 76 76 75 74 73 74 74 73 72 71 70 70 71 72 73 75 77 79 80 82 84 85 86 88 90 91 92 93 94 95 94 93 91 89 88 88 88 88 88 86 84 80 76 72 68 62 57 52 47 42 38 36 34 32 31 33 33 30
68 71 71 71 70 70 70 72 73 74 75 75 75 74 74 75 75 76 77 77 78 79 79 79 79 79 78 77 76 75 74 74 74 72 70 70 70 70 70 72 73 74 76 77 79 80 81 83 84 85 87 89 90 91 92 92 91 90 88 88 88 88 89 89 89 87 84 80 77 72 68 63 57 52 47 43 39 36 33 31 30 30 31 31 30
73 73 72 71 70 71 72 73 74 75 75 75 75 75 75 76 77 77 79 80 81 81 81 81 81 80 79 77 76 76 76 75 72 69 68 70 71 72 72 73 74 75 76 77 78 79 81 83 84 86 87 89 89 89 88 87 87 87 87 88 89 90 90 90 88 84 80 76 72 68 63 58 52 47 42 38 35 33 31 29 29 29 29 29 29
75 74 73 73 73 74 74 75 75 75 75 74 75 76 77 78 78 79 81 82 82 82 82 83 83 81 79 79 78 77 75 72 70 71 73 75 75 75 76 76 76 77 78 79 80 81 83 84 85 86 86 86 85 85 85 86 87 88 89 90 91 91 90 88 84 80 75 71 67 63 58 52 47 43 38 34 32 31 30 28 28 28 28 28 28
75 75 75 75 75 76 76 75 75 74 74 74 75 76 78 79 80 82 83 84 84 84 84 85 83 82 81 80 77 74 72 72 74 78 80 80 80 80 80 80 80 80 81 81 82 82 83 83 84 83 83 83 84 84 86 87 89 90 90 91 91 89 87 83 78 74 70 66 61 57 52 47 42 39 35 31 29 29 29 28 27 27 28 27 28
76 76 76 76 76 76 75 75 75 74 74 75 76 78 79 81 83 84 85 85 85 85 85 84 83 82 80 79 78 76 76 78 81 82 83 83 83 84 83 82 82 82 82 82 82 82 81 81 81 82 82 84 85 87 88 90 90 91 91 90 89 86 81 76 72 68 64 60 55 51 46 42 39 36 32 28 28 28 28 27 27 27 27 27 28
77 77 77 77 76 75 75 75 76 75 76 76 78 79 81 83 84 85 86 86 86 85 85 84 83 82 80 80 80 81 81 82 83 83 84 85 84 84 83 82 82 81 80 80 79 79 79 80 81 83 84 86 88 90 90 91 91 91 90 88 85 80 75 71 66 62 58 54 50 45 41 38 35 33 30 27 27 27 27 26 26 27 27 27 27
78 78 77 76 76 76 76 77 77 77 77 79 80 81 83 84 85 85 86 86 86 85 85 84 83 82 82 82 83 83 83 83 84 84 84 84 83 82 80 79 79 78 77 78 78 79 80 82 84 86 87 89 90 91 91 91 90 88 86 83 79 75 70 65 60 56 52 48 44 41 37 35 33 31 29 27 26 26 25 26 27 27 28 28 27
79 78 77 77 77 78 77 77 78 78 79 81 82 83 84 84 84 85 86 86 86 86 85 84 84 84 85 85 85 85 84 84 84 83 82 81 79 78 77 77 77 78 78 79 80 82 84 86 88 89 90 91 91 91 90 89 86 83 80 76 72 69 64 59 55 50 46 43 40 37 34 32 31 30 28 27 26 25 25 26 27 27 28 28 27
79 78 78 78 78 78 77 78 79 79 81 82 83 84 84 85 85 86 86 86 87 86 86 86 86 86 86 86 86 85 84 83 82 80 78 77 76 76 77 78 79 80 82 83 84 86 87 89 90 91 91 91 89 88 86 83 80 76 72 69 66 62 58 54 49 46 42 39 36 34 32 31 30 29 28 27 26 24 24 26 27 28 29 29 27
77 78 78 79 78 78 78 79 80 80 82 83 84 84 85 86 86 87 87 87 87 87 87 87 87 87 87 86 85 83 81 79 78 77 76 76 77 79 80 82 83 84 85 86 88 89 90 91 91 91 89 87 84 82 78 75 72 69 65 62 59 56 53 49 45 42 39 36 34 32 30 29 29 28 27 27 25 24 24 26 28 29 30 29 28
77 78 79 78 78 79 80 80 80 81 82 83 84 85 86 86 87 87 87 87 87 87 87 87 87 87 86 84 82 79 78 77 77 77 78 79 80 82 84 85 87 88 88 89 90 91 91 90 89 86 83 80 77 74 70 68 65 62 59 56 54 51 49 45 42 39 37 34 32 30 29 28 28 27 26 26 25 24 24 27 29 30 30 30 28
78 79 79 79 80 81 80 80 80 81 82 84 85 86 86 87 87 87 87 87 87 88 87 87 86 85 83 81 79 77 77 77 78 79 80 82 84 86 88 89 89 89 90 90 90 89 87 85 82 78 75 72 69 66 64 62 59 56 54 51 50 48 45 42 39 37 34 32 30 29 27 27 27 27 26 25 25 24 25 28 31 32 31 30 28
79 79 80 80 80 80 79 79 80 82 83 85 85 86 86 87 87 87 87 88 87 87 86 85 83 81 80 79 78 78 79 80 81 82 84 86 87 89 90 90 90 89 88 87 85 83 79 76 73 70 67 65 63 60 58 56 54 52 49 47 46 44 42 40 37 35 32 30 29 28 26 26 26 26 26 25 24 24 25 29 32 33 32 31 29
79 79 80 79 79 79 79 80 81 82 84 85 85 86 86 86 87 88 88 87 86 85 83 81 80 79 79 79 79 81 82 83 84 86 87 89 89 89 89 89 88 86 83 81 78 74 70 67 65 63 61 60 58 56 53 52 50 48 46 44 43 42 40 38 35 33 31 29 28 27 26 25 25 26 26 25 25 25 26 30 33 34 33 31 29
78 78 78 77 78 78 80 81 82 84 85 85 86 86 86 87 87 87 86 85 83 81 80 79 78 79 80 81 82 84 85 87 88 89 89 89 89 88 87 85 83 80 77 73 69 66 63 61 59 58 57 56 54 51 49 47 46 44 43 41 40 39 38 36 34 31 29 28 27 26 25 24 25 26 26 26 26 26 27 31 34 35 34 32 30
77 77 77 77 78 79 80 82 83 84 85 85 86 86 86 86 86 85 83 82 80 79 78 78 79 81 82 84 85 87 88 89 89 89 88 88 87 85 83 80 77 73 70 66 62 60 58 57 56 55 54 52 50 48 46 44 42 41 40 39 38 37 36 34 32 30 28 27 26 25 24 23 24 25 26 26 26 26 27 31 35 36 35 33 31
77 77 77 78 79 81 82 83 84 85 85 86 85 85 84 83 82 81 80 79 79 79 79 80 82 84 85 86 88 89 89 88 88 88 87 87 85 82 79 75 71 67 63 60 58 57 55 54 53 51 50 49 47 45 43 41 40 39 38 37 36 35 33 32 30 28 27 26 25 25 24 23 23 25 26 26 27 27 28 32 36 37 36 34 32
77 77 77 79 81 82 83 84 84 84 84 83 83 82 81 80 79 79 78 79 80 81 82 83 85 87 88 88 89 89 89 89 89 88 87 85 82 78 74 70 65 62 59 57 56 55 53 51 50 48 47 46 45 43 41 39 38 37 36 36 35 33 31 30 28 27 26 25 24 24 23 23 22 24 26 26 27 28 29 32 36 38 37 36 33
78 78 79 80 82 83 83 83 82 82 81 80 79 79 79 78 78 79 79 81 83 85 86 87 89 90 91 91 91 91 91 91 90 88 85 82 78 74 69 65 61 59 58 56 55 52 50 48 47 46 45 44 44 42 40 39 37 36 35 34 33 32 30 28 27 25 24 24 23 23 23 22 22 23 25 26 27 28 29 32 37 39 39 37 35
78 79 80 81 81 81 80 80 79 79 78 77 77 77 78 78 80 81 82 84 86 88 90 91 91 92 93 93 93 92 91 90 87 84 81 77 73 69 65 61 58 57 55 53 51 49 48 46 45 44 43 43 42 41 40 38 37 36 35 33 32 31 29 27 25 24 23 22 22 22 22 22 21 22 24 26 27 28 30 32 36 40 40 39 36
78 79 79 79 78 77 77 77 77 76 75 75 76 77 78 80 82 84 85 87 88 90 91 92 93 93 93 93 92 91 89 86 83 79 76 72 68 64 60 57 54 53 51 49 48 47 46 45 44 43 42 41 41 40 39 38 37 35 34 33 31 30 28 25 23 22 21 21 21 21 21 21 21 21 23 25 26 28 30 32 36 40 41 40 38
77 76 76 75 75 75 76 76 75 75 75 76 77 79 80 82 84 86 87 88 90 91 92 93 94 93 93 92 90 88 85 81 77 73 69 66 62 57 54 51 50 48 47 46 45 44 43 42 41 41 40 40 39 39 38 37 36 35 34 32 31 29 26 24 22 21 20 20 20 20 20 19 20 20 22 24 26 28 30 32 36 40 43 42 40
74 73 73 73 74 75 75 75 75 76 77 79 80 82 83 85 86 88 89 90 91 92 93 93 93 92 91 89 86 83 79 75 71 67 62 59 54 51 48 47 46 46 45 44 42 41 40 40 39 39 39 38 38 37 36 36 35 34 33 32 30 28 26 23 21 20 20 20 20 20 19 18 19 19 21 23 25 28 30 32 35 40 44 43 42
72 72 72 72 73 74 75 76 77 78 80 81 83 85 86 87 88 89 90 91 91 92 92 92 91 89 87 84 80 76 72 68 64 60 56 52 48 46 44 44 43 43 43 42 41 40 39 38 37 37 37 37 36 35 34 34 34 33 32 32 30 27 25 22 21 20 20 20 20 19 18 18 18 18 19 21 24 26 29 32 35 40 44 45 44
72 72 72 73 74 75 77 78 80 81 83 84 85 87 88 89 90 90 90 90 91 91 90 89 87 84 80 76 73 69 65 61 57 53 50 47 45 43 42 41 41 41 41 41 40 39 38 37 36 35 35 35 34 34 33 32 32 32 32 31 29 27 24 22 21 20 20 20 19 19 19 18 18 17 18 19 22 25 28 31 34 39 44 46 46
72 73 74 75 77 78 79 81 82 84 85 86 87 88 89 90 90 90 89 89 89 88 86 83 80 76 72 68 64 61 57 54 50 48 45 44 43 42 41 40 39 39 40 40 40 39 38 37 36 35 34 33 33 32 31 31 31 31 30 30 28 26 24 22 21 20 20 20 20 19 19 18 17 17 17 18 20 23 26 30 33 37 43 47 47
Wind_Direction
303 304 306 308 310 310 310 309 308 309 310 314 317 319 318 316 314 314 314 313 310 309 311 312 311 311 311 310 311 312 313 313 310 308 309 310 309 309 310 310 312 314 313 310 310 313 316 316 315 315 314 311 308 308 309 312 314 314 314 315 316 318 320 320 321 322 323 324 325 327 327 326 327 327 328 328 323 312 298 288 279 272 267 263 259
301 303 304 306 307 308 307 306 306 308 312 316 318 317 316 314 312 311 311 309 305 304 307 309 308 309 310 309 309 311 312 312 310 307 307 309 309 310 312 312 312 311 309 307 308 310 312 314 314 313 312 308 306 307 309 310 311 311 312 313 315 316 318 319 320 322 322 323 324 324 324 324 324 325 325 326 323 316 305 294 286 278 272 266 261
299 300 302 303 305 305 304 303 305 310 314 317 317 316 314 312 310 309 309 308 304 303 306 307 308 310 310 308 308 310 311 311 309 306 307 309 308 310 313 312 309 308 305 305 307 308 309 311 312 311 309 306 305 306 307 307 307 309 310 312 314 316 317 318 320 321 321 321 321 322 322 322 322 323 324 324 322 317 308 298 290 283 277 271 264
297 298 300 301 302 302 301 302 307 312 315 316 315 314 311 309 308 307 307 308 304 302 304 305 307 308 307 307 309 309 309 310 307 304 307 309 307 308 309 307 305 305 304 304 306 305 305 307 309 308 306 304 303 303 304 304 305 307 310 312 313 315 316 317 319 319 320 319 319 319 320 320 321 322 322 322 321 317 309 300 292 286 280 274 268
295 296 298 299 300 300 300 304 308 312 314 315 314 311 308 306 305 302 299 299 298 299 301 302 304 304 304 306 309 309 309 309 307 303 305 307 306 304 302 300 301 304 303 303 303 302 303 305 306 304 302 300 300 301 301 302 304 306 309 310 311 313 314 315 316 317 318 317 317 318 318 319 320 320 321 321 319 316 310 302 294 287 281 277 272
294 295 297 297 298 299 301 304 308 311 314 314 309 305 302 297 290 286 287 289 291 294 296 298 300 300 301 303 307 308 307 308 306 303 302 303 304 302 298 297 300 301 300 300 300 301 302 302 302 300 297 297 298 299 300 301 303 306 307 309 310 312 313 314 315 316 316 316 316 316 317 318 319 319 319 319 318 315 310 303 297 290 284 279 275
292 294 295 296 297 299 301 303 306 310 312 310 306 303 299 291 282 278 282 287 290 292 294 297 300 301 301 301 302 303 304 305 303 300 298 300 301 301 298 297 297 297 296 297 298 300 300 299 298 295 294 294 296 297 298 301 303 305 307 308 310 312 312 313 314 314 315 315 315 315 316 317 318 318 318 318 316 314 309 303 299 294 288 283 278
291 293 294 295 296 298 300 301 304 307 307 306 305 300 292 286 284 284 288 294 296 295 297 300 302 302 301 300 298 298 299 300 298 296 295 296 297 299 299 296 293 293 294 296 298 299 297 295 293 292 291 292 294 296 298 300 303 305 307 309 310 311 312 312 312 313 313 314 314 314 315 316 317 317 317 316 315 313 308 304 301 296 291 286 279
289 291 292 294 295 296 298 299 301 303 301 299 298 293 287 287 290 292 296 299 299 300 301 303 303 302 301 299 296 295 296 296 295 294 293 293 295 297 296 292 291 292 294 296 297 297 294 291 289 290 290 291 294 296 298 300 302 304 307 308 310 310 311 311 311 312 312 313 313 314 314 315 316 316 316 315 314 312 308 305 301 297 292 287 280
288 290 291 292 293 294 296 298 299 299 297 292 287 285 287 290 294 298 300 301 301 302 303 303 304 303 301 299 296 296 296 296 295 294 294 295 296 295 292 291 292 293 294 295 295 293 290 288 287 288 289 291 294 295 297 299 302 304 306 307 309 309 309 310 310 311 311 312 312 313 314 314 315 315 315 314 313 311 308 305 302 297 293 288 280
287 288 289 290 291 292 294 295 296 296 294 291 286 283 284 288 292 296 299 299 300 301 301 301 302 302 300 298 296 296 295 295 296 295 295 296 296 294 292 292 293 293 293 292 291 289 288 287 287 288 289 291 293 294 296 299 302 304 306 307 307 307 308 308 309 310 311 311 311 312 313 314 314 314 314 313 313 311 308 305 301 297 294 288 279
285 286 287 288 289 291 292 293 294 294 292 290 288 286 285 287 289 291 294 296 298 299 300 300 301 301 300 298 297 296 295 294 294 293 292 293 293 292 290 290 291 291 290 289 288 287 286 285 286 287 289 290 292 294 296 300 303 304 305 305 305 305 306 307 308 309 309 309 310 311 312 313 313 313 313 313 312 310 308 305 301 297 294 288 278
285 285 286 288 289 290 292 293 294 294 292 291 289 289 288 289 289 291 293 295 297 299 300 300 300 300 299 297 296 294 293 291 289 287 286 286 286 287 287 288 288 288 287 286 285 285 285 286 287 288 289 290 292 294 297 299 300 301 302 303 303 304 305 306 307 307 307 307 309 310 311 312 312 312 312 312 311 309 307 305 301 297 294 288 277
287 288 289 290 291 292 293 294 295 294 293 292 291 291 292 293 293 294 296 297 299 300 301 300 299 299 298 296 294 293 291 290 287 284 282 280 280 282 283 285 286 285 284 283 283 285 287 288 290 290 291 292 294 296 297 298 299 300 301 302 303 304 305 305 306 305 305 307 309 310 310 311 311 311 311 311 310 308 307 305 301 298 294 286 276
289 290 291 292 293 294 296 296 296 295 294 293 294 294 295 295 295 297 298 300 300 301 300 299 299 299 297 295 293 291 290 288 286 282 280 278 277 278 280 281 281 282 283 284 287 290 290 291 292 292 293 295 296 297 298 299 300 301 302 303 303 304 304 304 304 304 305 307 308 309 310 310 310 310 310 310 309 308 307 305 300 297 293 285 275
288 289 291 292 294 296 297 297 296 296 295 295 295 295 295 295 296 298 299 299 300 300 299 298 298 298 296 293 291 290 288 286 283 281 280 278 277 278 279 279 279 281 282 285 289 292 291 290 291 293 295 296 298 298 299 301 302 302 303 303 303 303 302 302 302 303 305 307 308 309 310 309 309 309 309 308 308 307 307 304 299 295 290 284 276
286 287 289 291 293 295 296 296 296 296 296 295 295 295 295 296 297 297 298 298 298 298 297 298 298 298 295 291 288 286 283 281 280 278 277 277 276 277 278 279 280 282 283 286 289 290 289 289 291 294 296 297 298 299 300 301 302 302 302 302 301 301 301 301 302 304 305 306 307 308 309 308 308 308 308 308 307 307 306 303 297 292 287 282 275
285 286 288 290 292 293 294 294 295 295 295 295 295 295 296 297 297 296 296 297 297 296 297 299 299 297 293 289 286 283 281 280 278 276 276 276 276 276 277 278 280 282 284 286 287 286 286 288 291 294 295 296 297 298 299 300 300 300 300 300 300 300 299 300 302 303 305 306 307 307 307 308 308 308 307 307 307 306 304 300 294 289 285 279 272
284 285 287 289 291 292 293 293 294 294 294 294 294 295 296 296 296 296 296 297 297 297 299 300 298 296 292 289 287 287 286 284 281 279 278 277 277 277 278 279 280 282 284 285 285 284 286 289 292 293 293 294 295 296 297 298 298 299 299 298 298 298 299 300 302 303 304 305 306 306 307 308 308 309 309 308 306 305 302 297 290 286 283 277 267
284 285 287 289 290 291 292 293 293 293 293 293 293 294 296 296 297 297 297 298 298 299 299 299 297 294 291 288 288 289 289 287 285 283 281 280 279 279 279 280 281 281 282 283 284 285 287 289 291 292 292 294 295 296 297 297 297 297 297 297 297 298 299 300 301 302 304 304 305 306 307 308 309 309 309 308 306 303 299 293 286 283 279 274 264
284 285 287 288 289 290 291 291 292 292 292 293 294 295 297 298 298 298 299 299 299 299 299 298 296 294 291 290 290 290 289 288 287 285 284 283 281 281 280 281 281 282 283 284 285 286 287 288 290 292 293 295 296 296 297 296 296 296 296 296 297 298 299 300 301 302 303 304 306 307 308 309 309 308 308 306 304 300 295 288 284 280 275 270 262
283 285 287 288 289 289 289 290 291 292 293 294 296 297 299 299 299 299 299 299 300 301 301 300 299 298 297 297 297 296 295 293 291 289 287 285 284 282 282 282 282 283 283 285 286 288 289 290 292 293 294 295 296 296 296 295 295 295 295 296 297 298 299 300 301 302 304 305 307 308 308 309 309 308 307 305 302 296 290 285 281 276 270 266 260
284 285 287 288 288 288 289 290 292 293 294 296 297 299 300 300 300 300 300 301 302 302 302 301 301 300 300 299 298 297 297 296 295 293 292 289 287 284 284 284 285 285 286 287 289 290 291 292 293 293 294 294 294 294 294 294 294 295 295 296 297 298 299 301 302 304 305 307 308 308 308 308 308 307 306 303 299 292 285 281 278 272 266 262 258
285 286 286 287 287 288 291 292 293 294 295 297 298 299 299 298 299 299 300 300 301 301 300 299 298 298 298 297 296 295 295 295 295 295 295 293 291 289 287 287 287 288 289 290 290 290 291 291 291 291 291 292 292 292 293 293 294 295 296 297 298 299 301 303 304 306 307 308 308 308 308 307 306 305 303 300 295 288 281 278 275 267 262 259 256
283 283 284 286 288 290 292 292 292 294 295 296 297 297 297 297 297 298 298 298 299 299 298 297 297 296 296 295 294 294 294 294 295 296 296 295 294 293 291 290 289 289 289 289 289 289 289 289 290 290 290 290 291 292 293 294 295 296 297 298 300 302 303 305 306 306 307 308 308 307 307 306 305 303 300 297 292 285 279 275 270 263 259 256 253
279 281 283 286 288 289 290 291 292 293 295 296 296 295 295 296 296 296 296 297 297 297 296 296 296 296 295 295 294 293 293 295 297 297 297 297 297 296 295 293 292 292 291 291 290 290 290 290 290 290 291 291 292 294 295 297 298 299 300 301 303 304 305 306 306 307 307 307 307 306 305 304 303 301 297 293 288 282 276 271 266 261 256 253 250
279 281 283 285 287 288 289 291 292 293 294 294 294 294 294 294 294 295 295 296 296 295 295 294 295 295 295 294 293 293 295 297 298 297 298 299 300 300 299 298 297 296 295 294 293 293 293 293 293 293 294 295 296 297 298 299 300 301 303 304 305 305 305 305 306 307 307 306 305 305 304 303 301 298 294 290 284 278 273 268 263 258 253 250 247
279 281 283 284 286 287 289 290 291 292 293 293 293 292 292 293 294 294 294 294 293 293 293 294 295 295 295 295 295 296 297 298 297 298 300 301 301 301 301 301 300 298 297 297 296 296 296 297 297 298 298 299 299 300 301 302 303 304 304 305 305 305 305 306 306 306 306 305 304 303 302 301 299 296 291 286 279 274 270 265 260 255 250 246 243
278 281 282 284 286 287 289 290 290 291 291 291 291 291 292 292 293 293 292 292 292 293 293 294 295 296 296 296 297 297 297 297 298 300 302 303 303 303 303 302 302 301 300 300 300 300 300 300 300 300 300 301 302 302 303 304 304 304 304 304 304 304 305 305 306 305 304 303 303 302 301 299 296 292 288 281 275 271 267 263 257 252 247 242 239
278 280 282 284 286 287 288 288 289 289 290 290 291 291 291 292 292 292 292 292 292 293 294 295 296 296 297 297 298 297 298 299 300 302 304 304 305 304 304 303 302 302 302 301 301 301 301 301 301 302 302 303 304 304 304 304 304 304 304 304 304 304 305 305 305 304 303 302 301 301 299 297 293 289 284 277 272 268 265 260 254 247 242 237 234
279 281 283 284 285 286 287 287 288 289 289 290 290 290 291 291 291 291 291 292 292 294 295 296 296 297 297 297 298 298 299 300 302 304 305 305 304 303 303 302 302 302 302 302 301 302 302 302 302 303 304 304 304 304 304 304 304 303 303 304 304 304 305 305 304 303 302 301 300 299 297 294 289 285 280 275 270 266 262 257 250 243 238 234 230
279 281 282 283 284 285 286 287 288 288 289 289 290 290 290 290 289 289 290 292 293 294 295 296 296 296 296 297 298 299 301 302 304 304 304 303 303 302 302 302 302 302 302 302 302 303 303 303 304 304 304 304 304 304 304 303 303 303 303 304 304 304 304 303 303 302 301 300 298 297 295 291 286 281 278 273 268 264 259 253 246 239 234 230 226
280 281 282 283 285 286 287 287 288 288 289 289 289 289 288 288 288 289 291 292 293 294 294 295 295 295 296 297 299 301 303 304 304 303 302 302 302 302 302 302 302 303 303 304 304 304 304 304 304 303 303 303 303 303 303 302 302 303 303 303 303 303 303 302 302 301 300 298 296 294 292 288 283 279 275 271 266 261 254 248 242 235 229 227 224
280 281 283 284 285 286 286 287 287 287 287 287 287 287 288 288 289 290 291 292 293 293 294 294 295 296 297 299 301 303 303 303 302 301 301 301 302 302 303 303 303 304 305 305 305 304 304 303 303 303 302 302 302 302 301 301 302 302 302 302 302 302 302 302 302 301 299 296 294 292 290 286 281 276 272 268 263 257 249 242 237 231 226 224 222
281 283 284 285 285 285 285 285 286 286 286 286 286 287 288 289 290 291 291 292 292 293 293 294 296 297 299 301 302 302 302 301 301 301 302 303 303 304 304 304 305 305 305 305 304 303 303 302 302 302 301 301 301 300 301 301 301 301 302 302 302 302 302 302 301 299 297 295 292 290 287 283 278 274 270 265 260 254 245 238 232 227 223 222 219
282 283 283 283 283 283 284 284 285 285 285 286 287 288 289 290 291 291 291 291 292 293 294 295 297 299 300 301 301 301 301 301 302 303 304 305 305 304 304 304 304 304 304 304 303 302 302 301 301 300 300 299 299 300 300 301 301 301 302 302 302 302 302 302 301 298 296 293 290 287 284 280 275 272 267 262 257 249 240 233 228 223 221 220 217
282 282 281 282 282 283 284 284 285 285 286 286 287 288 290 290 291 291 291 291 292 294 295 297 298 299 299 299 300 300 302 303 304 305 305 305 304 304 304 304 304 303 303 302 301 301 300 300 299 299 298 298 299 300 301 301 301 302 302 302 302 303 302 302 300 298 295 292 288 284 281 277 273 269 265 259 253 245 236 229 224 220 218 217 215
279 279 280 281 282 283 284 285 285 286 286 287 288 289 290 290 290 290 291 292 294 295 296 297 298 298 299 300 301 302 303 304 305 305 304 304 303 303 303 303 303 302 302 301 300 300 299 299 298 298 298 299 300 301 301 302 302 303 303 303 303 303 302 301 299 297 294 291 287 282 278 274 270 267 263 256 249 242 233 225 221 218 215 215 213
278 279 280 282 283 284 285 285 286 286 287 287 288 289 290 290 290 291 293 294 295 296 297 297 298 299 300 302 303 304 304 304 304 304 303 303 303 303 303 302 302 302 301 301 300 300 299 298 298 298 299 300 301 301 302 302 302 303 303 303 303 303 301 299 297 295 292 289 285 280 276 271 267 264 260 254 246 239 230 223 219 216 213 212 212
279 280 281 282 284 285 285 286 286 286 287 288 289 289 290 291 291 293 294 294 295 296 297 298 299 301 302 303 303 303 303 303 303 303 303 303 303 303 303 303 303 302 302 301 300 299 298 298 298 299 300 300 301 301 301 302 302 303 303 304 303 302 301 298 296 294 291 288 284 280 274 269 265 262 258 252 244 236 228 221 218 215 212 210 210
279 280 282 283 284 285 285 286 286 287 288 289 289 290 290 291 292 293 294 295 296 297 298 300 301 301 302 302 302 301 301 301 302 302 303 303 304 304 304 304 304 303 302 301 300 299 299 299 299 300 300 300 300 300 301 302 302 303 304 304 303 302 300 297 295 292 290 287 284 280 275 269 263 259 256 251 243 235 226 220 217 214 211 209 208
280 281 282 283 284 285 285 286 287 287 288 289 289 290 290 291 292 293 294 296 297 299 300 300 301 300 300 300 300 300 301 302 303 304 305 305 305 305 305 305 304 303 302 301 300 299 299 299 299 299 299 299 299 300 301 302 303 303 303 303 302 301 299 296 294 291 289 286 284 280 276 269 263 258 254 249 243 235 227 219 216 214 211 208 206
281 282 283 284 285 285 286 287 287 288 288 289 289 290 291 292 293 295 296 298 299 299 299 299 299 299 300 300 301 302 304 305 306 306 306 306 305 305 305 305 304 302 301 300 300 300 300 300 299 299 299 299 300 300 301 303 304 304 303 303 301 300 298 296 293 291 288 285 283 280 276 270 263 257 252 248 242 236 228 220 216 214 212 208 205
281 283 284 285 285 286 287 287 287 288 288 290 291 292 293 294 295 297 298 298 298 299 299 300 300 301 302 304 305 306 306 306 306 306 305 305 305 305 304 303 303 302 301 301 300 300 300 300 299 299 299 299 300 301 302 303 304 303 303 302 300 298 297 295 293 291 288 285 282 280 276 272 265 258 252 247 241 236 230 222 216 214 212 208 204
282 284 285 285 286 286 286 286 287 288 290 292 293 294 295 296 297 297 298 298 299 300 301 302 303 303 304 305 305 305 305 305 305 305 304 304 304 303 303 302 302 301 301 301 301 301 301 301 300 300 299 299 300 300 301 302 302 303 302 300 298 297 296 295 294 291 288 284 281 279 276 273 268 260 254 247 240 235 231 224 218 214 212 208 204
283 284 284 285 285 285 286 287 289 290 292 293 294 295 295 295 296 297 297 298 300 301 301 302 303 303 303 304 304 304 304 304 304 304 303 303 302 302 302 302 301 301 301 302 302 302 302 301 301 300 299 299 299 299 300 300 301 301 301 299 297 296 295 295 294 291 286 282 279 278 276 274 270 263 255 248 240 234 231 226 219 215 212 209 205
283 284 284 285 285 286 288 289 291 292 293 293 293 294 294 295 296 297 298 299 300 301 301 302 302 302 303 303 303 303 303 303 303 303 302 302 301 301 301 302 301 301 302 302 302 302 302 302 301 300 299 298 298 298 299 299 299 299 299 298 296 295 295 295 294 290 285 280 277 276 276 275 272 265 257 249 241 233 229 226 221 216 213 209 205
283 284 285 286 287 289 290 291 292 292 293 293 293 294 295 296 297 298 299 300 300 300 301 301 301 302 302 302 302 302 302 302 301 301 301 301 301 301 302 302 302 302 303 303 303 304 304 303 303 301 300 299 298 298 297 297 297 297 296 295 295 294 294 294 292 289 284 279 276 275 275 274 272 267 258 251 243 234 228 225 221 216 213 210 206
284 285 286 287 288 289 290 291 292 293 293 294 295 295 296 297 298 299 299 299 299 300 300 300 300 300 300 300 300 300 300 299 299 300 300 300 301 301 302 303 303 304 305 305 306 306 306 305 304 302 300 299 298 297 296 294 293 293 293 293 293 293 293 292 289 286 282 278 275 274 273 271 270 267 260 252 245 236 229 225 221 217 213 210 206
285 286 287 287 288 289 290 291 292 293 294 295 295 296 297 297 298 298 298 298 298 299 299 299 299 299 298 298 298 298 297 297 298 298 299 300 301 302 303 304 305 306 306 307 307 308 308 307 306 304 302 300 298 296 294 292 291 290 290 290 291 291 291 289 286 283 280 276 273 271 269 268 266 265 261 254 246 238 230 226 223 218 215 211 208
285 285 286 287 288 290 291 292 293 293 294 294 295 295 296 296 297 297 298 298 298 298 297 297 297 297 296 296 296 295 295 295 296 297 299 300 301 303 303 304 306 306 307 307 308 308 308 308 307 306 304 302 300 297 295 292 289 288 287 288 289 289 288 287 284 280 278 275 271 268 266 264 262 261 259 254 248 240 232 227 223 220 216 213 210
Height
10944 10943 10942 10942 10941 10940 10938 10935 10933 10931 10930 10929 10928 10926 10923 10920 10917 10915 10913 10910 10907 10905 10903 10900 10898 10895 10894 10893 10891 10889 10886 10884 10881 10879 10876 10874 10870 10867 10865 10862 10860 10857 10854 10851 10848 10846 10844 10842 10840 10837 10835 10833 10831 10828 10825 10822 10819 10817 10814 10811 10809 10806 10803 10800 10796 10791 10784 10781 10781 10780 10778 10775 10773 10773 10773 10772 10771 10770 10768 10765 10761 10758 10755 10751 10748
10940 10940 10939 10938 10937 10936 10933 10930 10929 10928 10927 10925 10923 10921 10918 10914 10911 10909 10907 10904 10902 10899 10898 10895 10893 10891 10889 10887 10885 10884 10882 10879 10877 10874 10872 10869 10866 10863 10860 10858 10855 10852 10849 10846 10843 10840 10838 10837 10834 10832 10829 10827 10825 10822 10819 10816 10812 10810 10807 10805 10802 10799 10796 10792 10789 10785 10780 10774 10770 10769 10769 10767 10764 10761 10760 10760 10759 10758 10755 10752 10748 10746 10743 10740 10737
10937 10936 10935 10935 10933 10931 10928 10925 10925 10925 10924 10922 10919 10916 10912 10908 10904 10902 10900 10899 10897 10895 10893 10891 10888 10886 10885 10883 10880 10879 10877 10875 10873 10870 10867 10864 10861 10858 10856 10853 10850 10848 10845 10842 10838 10835 10833 10831 10829 10826 10824 10822 10819 10816 10813 10809 10806 10803 10800 10797 10794 10791 10787 10785 10781 10777 10774 10770 10765 10761 10759 10757 10755 10752 10749 10748 10747 10745 10742 10739 10735 10732 10730 10727 10725
10933 10932 10932 10931 10929 10927 10923 10921 10921 10921 10919 10918 10915 10911 10906 10901 10898 10896 10894 10893 10891 10890 10888 10886 10883 10881 10879 10877 10876 10874 10872 10870 10868 10865 10863 10860 10857 10854 10852 10849 10846 10843 10840 10838 10834 10831 10828 10826 10824 10821 10819 10816 10813 10810 10807 10803 10799 10795 10792 10789 10787 10783 10780 10777 10774 10770 10766 10763 10759 10755 10751 10747 10744 10741 10739 10737 10734 10731 10729 10727 10723 10719 10716 10713 10712
10928 10927 10927 10926 10924 10922 10919 10918 10917 10917 10915 10913 10909 10904 10899 10894 10892 10891 10890 10888 10886 10884 10883 10881 10879 10876 10873 10871 10870 10868 10866 10864 10862 10860 10858 10855 10852 10849 10847 10844 10841 10837 10835 10832 10829 10826 10823 10820 10818 10816 10813 10810 10807 10804 10800 10796 10792 10789 10786 10782 10779 10776 10773 10769 10766 10763 10760 10755 10751 10747 10743 10739 10734 10730 10728 10725 10722 10718 10716 10713 10709 10706 10703 10699 10698
10923 10923 10923 10921 10919 10917 10915 10914 10914 10914 10912 10908 10904 10898 10893 10889 10887 10886 10885 10883 10881 10880 10878 10876 10874 10872 10870 10868 10866 10863 10861 10859 10856 10854 10852 10849 10847 10844 10841 10838 10835 10831 10828 10826 10823 10820 10817 10815 10812 10810 10807 10803 10801 10797 10792 10788 10785 10781 10778 10774 10771 10768 10765 10762 10758 10756 10752 10748 10743 10738 10734 10731 10726 10721 10716 10713 10710 10707 10703 10701 10696 10691 10690 10688 10685
10918 10918 10918 10916 10914 10912 10911 10909 10909 10911 10909 10905 10899 10892 10886 10883 10881 10881 10881 10879 10877 10876 10874 10872 10870 10867 10865 10864 10861 10858 10855 10853 10850 10848 10845 10843 10841 10838 10835 10832 10828 10824 10821 10819 10817 10814 10811 10808 10806 10803 10800 10797 10794 10790 10785 10781 10777 10774 10770 10766 10763 10759 10756 10753 10750 10748 10745 10740 10735 10730 10726 10721 10718 10713 10707 10702 10699 10695 10691 10689 10685 10678 10676 10675 10672
10913 10913 10912 10910 10909 10907 10906 10905 10905 10906 10905 10902 10896 10886 10878 10876 10876 10876 10877 10876 10874 10872 10870 10868 10866 10863 10860 10858 10855 10852 10850 10848 10844 10841 10839 10836 10834 10832 10828 10825 10820 10816 10814 10813 10811 10808 10804 10802 10799 10796 10793 10790 10787 10783 10778 10774 10770 10766 10761 10757 10754 10750 10747 10745 10742 10739 10736 10732 10727 10721 10716 10712 10708 10704 10699 10693 10689 10685 10679 10676 10673 10668 10665 10662 10660
10908 10909 10907 10906 10904 10903 10901 10901 10901 10900 10898 10897 10893 10881 10871 10871 10872 10871 10872 10871 10869 10867 10865 10862 10861 10858 10855 10852 10849 10847 10845 10842 10838 10834 10831 10829 10827 10825 10821 10817 10813 10809 10807 10806 10804 10801 10798 10794 10792 10789 10785 10783 10780 10776 10771 10767 10763 10759 10754 10749 10745 10742 10738 10735 10732 10729 10725 10721 10716 10711 10707 10702 10698 10695 10690 10684 10680 10675 10668 10664 10660 10657 10655 10653 10648
10903 10904 10902 10901 10900 10898 10897 10896 10896 10894 10890 10889 10886 10877 10868 10867 10867 10864 10864 10863 10862 10861 10858 10856 10855 10854 10851 10847 10844 10841 10838 10835 10831 10827 10824 10821 10820 10818 10814 10810 10806 10803 10801 10799 10797 10794 10791 10787 10785 10782 10778 10776 10773 10768 10764 10759 10755 10751 10746 10742 10738 10734 10731 10726 10722 10719 10715 10710 10705 10701 10696 10691 10688 10686 10681 10676 10671 10665 10658 10654 10649 10645 10645 10643 10638
10897 10898 10897 10895 10894 10893 10892 10890 10890 10889 10885 10880 10878 10873 10868 10865 10862 10859 10857 10856 10856 10855 10852 10850 10848 10847 10845 10841 10838 10835 10832 10828 10824 10820 10817 10814 10812 10810 10807 10804 10800 10797 10794 10792 10789 10787 10784 10780 10778 10774 10771 10768 10765 10761 10756 10751 10747 10742 10738 10734 10730 10726 10723 10719 10714 10709 10705 10700 10695 10691 10687 10682 10677 10674 10671 10667 10661 10655 10648 10643 10639 10635 10634 10633 10629
10891 10891 10891 10889 10888 10887 10886 10885 10884 10883 10879 10874 10870 10868 10865 10862 10860 10857 10854 10851 10851 10849 10846 10843 10841 10840 10838 10834 10831 10828 10825 10822 10818 10814 10811 10808 10806 10803 10800 10797 10794 10791 10788 10785 10782 10779 10776 10773 10770 10767 10763 10759 10756 10752 10747 10743 10738 10734 10729 10726 10722 10718 10714 10711 10707 10702 10696 10692 10687 10682 10678 10674 10668 10663 10660 10656 10651 10645 10639 10632 10628 10626 10624 10622 10619
10882 10884 10884 10882 10881 10880 10879 10878 10878 10876 10873 10869 10865 10862 10859 10857 10855 10852 10849 10847 10845 10843 10840 10837 10835 10833 10830 10826 10824 10820 10817 10814 10811 10808 10805 10802 10800 10797 10794 10791 10788 10785 10782 10779 10775 10772 10768 10764 10761 10759 10755 10751 10746 10742 10738 10735 10731 10726 10721 10717 10713 10709 10705 10701 10698 10693 10688 10684 10680 10674 10669 10665 10660 10654 10649 10645 10640 10635 10630 10622 10617 10616 10615 10612 10609
10872 10874 10874 10873 10872 10871 10871 10871 10870 10868 10865 10862 10859 10856 10853 10851 10848 10845 10842 10840 10838 10836 10833 10830 10828 10826 10822 10819 10816 10813 10809 10807 10804 10801 10798 10796 10794 10791 10788 10786 10782 10778 10775 10771 10768 10765 10760 10755 10753 10750 10746 10741 10736 10731 10728 10726 10723 10718 10713 10708 10703 10699 10696 10692 10688 10683 10678 10674 10671 10667 10662 10656 10652 10646 10640 10636 10630 10625 10620 10614 10607 10606 10605 10602 10600
10863 10863 10863 10862 10861 10861 10861 10861 10860 10859 10857 10855 10853 10850 10848 10845 10841 10837 10834 10832 10830 10828 10824 10821 10820 10819 10816 10812 10809 10806 10803 10801 10797 10794 10791 10789 10786 10784 10782 10780 10776 10771 10767 10764 10761 10757 10752 10747 10744 10742 10737 10730 10726 10722 10718 10716 10712 10708 10704 10699 10693 10688 10684 10681 10677 10672 10667 10664 10661 10657 10652 10647 10643 10638 10632 10627 10622 10616 10611 10605 10599 10598 10596 10593 10591
10855 10855 10854 10853 10852 10851 10851 10850 10850 10849 10849 10848 10847 10844 10841 10839 10835 10831 10828 10825 10823 10821 10816 10812 10812 10811 10808 10805 10802 10800 10797 10794 10790 10786 10783 10780 10778 10776 10773 10772 10769 10764 10759 10757 10754 10749 10743 10738 10736 10732 10727 10721 10716 10711 10708 10705 10702 10699 10694 10689 10684 10678 10673 10669 10666 10661 10656 10653 10651 10647 10643 10637 10632 10628 10622 10618 10613 10608 10602 10595 10591 10590 10588 10584 10583
10849 10848 10847 10846 10846 10845 10844 10842 10841 10841 10841 10841 10839 10837 10834 10832 10829 10826 10823 10820 10818 10814 10809 10805 10804 10803 10800 10797 10794 10791 10789 10787 10783 10779 10775 10772 10770 10768 10765 10763 10760 10756 10751 10750 10749 10742 10733 10728 10726 10722 10717 10712 10707 10702 10698 10695 10693 10689 10684 10679 10674 10668 10662 10658 10655 10652 10647 10642 10639 10635 10632 10627 10623 10618 10612 10607 10603 10599 10594 10587 10582 10581 10580 10577 10576
10842 10841 10841 10841 10840 10839 10838 10836 10835 10834 10832 10832 10831 10829 10827 10825 10822 10818 10816 10814 10812 10807 10802 10798 10796 10794 10791 10788 10785 10782 10780 10778 10775 10771 10768 10765 10762 10760 10757 10754 10751 10747 10743 10742 10741 10734 10724 10718 10715 10712 10708 10703 10698 10693 10689 10685 10682 10678 10673 10669 10664 10658 10653 10648 10644 10642 10639 10634 10629 10624 10619 10615 10611 10607 10602 10597 10593 10589 10585 10579 10574 10572 10571 10570 10569
10835 10835 10835 10835 10834 10832 10831 10830 10829 10827 10825 10823 10822 10822 10821 10818 10814 10810 10807 10805 10803 10800 10795 10791 10788 10785 10782 10779 10776 10773 10771 10769 10766 10762 10759 10757 10754 10750 10748 10745 10741 10738 10735 10733 10730 10724 10716 10710 10705 10701 10697 10694 10689 10684 10680 10675 10671 10667 10663 10658 10653 10648 10643 10639 10635 10632 10628 10624 10619 10614 10609 10603 10599 10595 10591 10587 10582 10578 10575 10571 10567 10565 10563 10562 10563
10828 10828 10828 10828 10827 10826 10825 10824 10822 10820 10817 10815 10814 10814 10813 10811 10807 10802 10799 10796 10793 10790 10787 10785 10781 10778 10775 10772 10769 10766 10763 10760 10757 10754 10750 10747 10744 10740 10737 10734 10731 10728 10724 10721 10718 10715 10709 10703 10696 10690 10686 10684 10679 10674 10670 10665 10660 10656 10652 10647 10642 10637 10633 10630 10626 10622 10617 10612 10607 10603 10598 10593 10588 10585 10581 10577 10573 10569 10565 10562 10560 10558 10555 10554 10555
10821 10821 10821 10821 10820 10819 10818 10817 10815 10812 10809 10807 10806 10805 10803 10801 10797 10794 10791 10787 10784 10781 10778 10776 10773 10770 10767 10765 10761 10758 10755 10751 10748 10745 10742 10738 10735 10730 10726 10723 10720 10718 10715 10709 10706 10704 10700 10693 10687 10681 10676 10673 10669 10664 10659 10654 10649 10644 10640 10635 10631 10627 10624 10620 10616 10611 10606 10601 10595 10590 10585 10581 10577 10574 10571 10567 10564 10559 10555 10553 10552 10551 10548 10546 10548
10813 10813 10813 10813 10813 10812 10810 10809 10807 10804 10801 10799 10798 10795 10792 10789 10786 10783 10781 10778 10775 10772 10769 10766 10763 10760 10756 10753 10750 10747 10744 10741 10738 10735 10732 10729 10725 10721 10717 10714 10711 10709 10706 10700 10695 10692 10688 10683 10677 10672 10667 10662 10658 10653 10648 10643 10638 10633 10628 10624 10621 10617 10614 10609 10605 10600 10594 10589 10584 10578 10573 10570 10566 10563 10560 10557 10554 10551 10547 10544 10544 10543 10540 10539 10541
10806 10806 10806 10806 10804 10803 10802 10801 10799 10796 10793 10791 10789 10786 10782 10779 10776 10773 10770 10768 10765 10763 10759 10756 10753 10750 10746 10743 10740 10737 10733 10730 10727 10725 10722 10718 10715 10711 10708 10705 10702 10699 10696 10692 10687 10682 10678 10673 10668 10663 10658 10653 10648 10643 10638 10632 10627 10622 10618 10614 10610 10607 10603 10598 10593 10587 10582 10576 10571 10566 10562 10559 10556 10552 10549 10546 10544 10542 10538 10536 10537 10536 10533 10532 10534
10798 10798 10798 10797 10795 10794 10794 10793 10790 10788 10785 10783 10780 10777 10773 10770 10767 10765 10762 10759 10757 10754 10752 10748 10745 10742 10739 10736 10732 10729 10725 10721 10717 10714 10711 10707 10704 10701 10698 10695 10693 10690 10686 10683 10678 10673 10669 10664 10659 10654 10649 10644 10638 10633 10627 10622 10617 10613 10608 10603 10599 10595 10591 10586 10580 10574 10569 10564 10559 10555 10551 10548 10545 10543 10539 10537 10534 10533 10530 10529 10529 10528 10526 10526 10527
10790 10789 10789 10788 10787 10786 10785 10784 10782 10780 10777 10775 10771 10768 10764 10761 10759 10756 10754 10751 10749 10746 10743 10740 10737 10734 10731 10727 10724 10720 10716 10713 10708 10704 10701 10696 10693 10691 10688 10684 10681 10679 10676 10672 10668 10664 10659 10654 10650 10644 10638 10633 10628 10622 10617 10612 10607 10602 10598 10592 10588 10583 10578 10573 10567 10562 10557 10553 10548 10544 10541 10538 10536 10533 10530 10528 10526 10524 10522 10521 10522 10521 10520 10520 10521
10782 10780 10780 10780 10779 10778 10777 10775 10774 10771 10769 10766 10763 10759 10756 10753 10750 10747 10745 10742 10740 10737 10734 10731 10728 10725 10721 10718 10715 10711 10706 10703 10698 10694 10691 10686 10682 10680 10678 10674 10670 10667 10664 10660 10656 10652 10648 10642 10638 10633 10627 10621 10617 10612 10606 10600 10595 10590 10585 10580 10575 10571 10565 10560 10555 10550 10546 10542 10537 10534 10531 10528 10526 10524 10522 10519 10517 10515 10515 10515 10515 10514 10514 10514 10515
10774 10774 10773 10772 10771 10769 10768 10767 10765 10762 10759 10757 10753 10750 10747 10744 10742 10739 10736 10733 10730 10727 10725 10721 10718 10715 10712 10708 10705 10701 10696 10692 10688 10684 10681 10677 10673 10669 10666 10663 10659 10656 10652 10648 10643 10639 10635 10629 10624 10620 10614 10609 10604 10599 10594 10589 10583 10577 10573 10568 10563 10558 10553 10548 10544 10539 10535 10531 10527 10524 10521 10519 10517 10516 10514 10512 10510 10508 10508 10508 10508 10508 10508 10508 10510
10767 10767 10766 10764 10762 10761 10759 10757 10755 10753 10750 10747 10744 10741 10738 10735 10733 10730 10727 10723 10720 10717 10715 10712 10708 10705 10701 10697 10694 10690 10685 10681 10677 10673 10670 10667 10663 10659 10655 10651 10647 10643 10639 10635 10630 10626 10622 10616 10610 10606 10601 10596 10592 10587 10582 10577 10571 10566 10561 10556 10551 10546 10541 10537 10533 10529 10525 10521 10518 10515 10513 10511 10509 10507 10506 10505 10503 10502 10501 10502 10502 10502 10502 10503 10505
10760 10759 10757 10755 10754 10752 10750 10748 10746 10744 10742 10739 10735 10732 10729 10726 10724 10720 10717 10714 10710 10707 10704 10701 10698 10695 10690 10686 10683 10680 10676 10671 10666 10662 10658 10654 10650 10646 10642 10638 10634 10630 10626 10622 10617 10613 10609 10604 10599 10594 10589 10584 10580 10575 10570 10565 10560 10555 10550 10545 10540 10536 10531 10527 10523 10519 10515 10512 10509 10507 10504 10503 10501 10500 10499 10498 10497 10496 10495 10496 10496 10496 10497 10499 10500
10752 10750 10749 10747 10745 10743 10740 10738 10736 10734 10732 10729 10726 10723 10720 10717 10713 10710 10706 10704 10700 10697 10693 10689 10686 10684 10680 10675 10672 10670 10666 10662 10657 10651 10647 10642 10638 10634 10629 10626 10622 10618 10613 10609 10605 10601 10597 10593 10588 10583 10577 10573 10568 10563 10558 10553 10548 10544 10538 10533 10528 10524 10521 10517 10514 10510 10506 10503 10501 10499 10497 10495 10494 10492 10492 10491 10491 10490 10490 10490 10491 10491 10492 10494 10495
10743 10742 10740 10738 10736 10734 10731 10728 10726 10725 10722 10719 10717 10713 10710 10707 10703 10700 10697 10693 10690 10686 10682 10678 10675 10672 10669 10665 10662 10659 10656 10652 10647 10641 10636 10631 10626 10622 10617 10614 10610 10606 10603 10598 10595 10591 10586 10582 10577 10572 10567 10562 10557 10552 10547 10542 10537 10532 10527 10522 10518 10514 10510 10508 10504 10501 10498 10495 10493 10491 10489 10488 10487 10486 10485 10485 10485 10484 10484 10485 10485 10487 10488 10489 10491
10734 10733 10731 10729 10726 10724 10721 10719 10716 10714 10711 10708 10705 10703 10700 10696 10693 10690 10687 10683 10679 10675 10672 10668 10665 10662 10659 10656 10652 10648 10644 10640 10635 10630 10625 10619 10615 10610 10606 10603 10599 10596 10593 10589 10585 10581 10576 10570 10565 10561 10556 10551 10546 10541 10536 10531 10526 10521 10517 10512 10508 10504 10501 10498 10495 10492 10490 10487 10485 10484 10482 10481 10480 10479 10479 10479 10479 10479 10479 10479 10480 10482 10483 10485 10487
10724 10722 10721 10719 10716 10714 10712 10709 10706 10703 10700 10697 10694 10691 10689 10686 10683 10680 10677 10673 10669 10665 10661 10658 10654 10651 10648 10645 10641 10637 10633 10628 10623 10618 10614 10609 10605 10600 10596 10593 10589 10586 10583 10579 10575 10570 10565 10560 10554 10549 10545 10540 10535 10530 10525 10520 10515 10511 10507 10503 10499 10496 10492 10489 10487 10484 10482 10480 10479 10477 10476 10475 10474 10473 10473 10473 10473 10474 10474 10475 10476 10477 10479 10480 10483
10714 10712 10710 10708 10706 10704 10702 10699 10696 10693 10690 10687 10683 10680 10678 10675 10672 10670 10666 10662 10658 10654 10650 10646 10643 10640 10637 10633 10629 10626 10622 10617 10612 10608 10604 10600 10596 10591 10587 10583 10579 10576 10572 10568 10564 10559 10554 10549 10543 10538 10534 10529 10524 10520 10515 10510 10505 10502 10498 10494 10491 10487 10484 10481 10479 10477 10475 10473 10472 10471 10470 10469 10468 10467 10467 10467 10468 10468 10469 10470 10471 10473 10474 10476 10479
10704 10701 10699 10697 10696 10694 10691 10689 10686 10683 10680 10677 10673 10670 10667 10664 10661 10658 10654 10650 10646 10643 10639 10636 10633 10629 10626 10622 10619 10615 10611 10606 10602 10598 10594 10590 10586 10580 10576 10572 10569 10565 10562 10558 10553 10548 10543 10537 10532 10527 10522 10518 10514 10509 10505 10501 10497 10493 10490 10486 10482 10479 10476 10474 10472 10470 10468 10467 10466 10465 10464 10463 10462 10461 10462 10462 10462 10463 10465 10465 10467 10468 10470 10472 10475
10694 10691 10689 10688 10685 10683 10681 10679 10677 10673 10669 10666 10662 10660 10657 10654 10650 10646 10643 10639 10636 10632 10629 10626 10623 10619 10616 10612 10608 10604 10600 10596 10592 10588 10584 10580 10575 10569 10565 10561 10558 10555 10551 10547 10541 10536 10531 10526 10521 10516 10511 10507 10504 10500 10496 10492 10488 10485 10482 10478 10474 10471 10469 10467 10465 10463 10462 10461 10460 10459 10458 10457 10456 10456 10456 10456 10457 10459 10460 10461 10462 10464 10466 10469 10471
10684 10681 10679 10678 10675 10672 10671 10669 10666 10662 10658 10654 10651 10649 10646 10643 10639 10635 10631 10628 10626 10623 10620 10617 10613 10609 10605 10601 10598 10594 10590 10586 10582 10577 10573 10569 10565 10559 10555 10551 10548 10544 10540 10535 10530 10525 10520 10514 10509 10505 10501 10497 10494 10491 10487 10483 10480 10477 10474 10470 10467 10464 10462 10460 10458 10457 10456 10455 10454 10453 10452 10451 10451 10450 10451 10451 10452 10454 10455 10457 10458 10460 10462 10465 10468
10674 10672 10669 10667 10664 10662 10660 10657 10654 10650 10646 10643 10641 10638 10635 10631 10627 10623 10621 10618 10616 10613 10610 10607 10603 10598 10594 10590 10587 10583 10579 10575 10572 10568 10563 10559 10555 10550 10545 10540 10536 10533 10529 10524 10519 10514 10509 10503 10498 10494 10491 10488 10485 10482 10479 10475 10472 10469 10466 10463 10460 10458 10456 10454 10452 10451 10450 10449 10448 10447 10446 10446 10445 10445 10445 10446 10447 10449 10451 10453 10454 10456 10458 10461 10464
10663 10661 10659 10656 10654 10651 10648 10646 10643 10639 10635 10633 10630 10627 10624 10620 10616 10613 10611 10609 10606 10603 10599 10595 10591 10587 10583 10579 10576 10572 10568 10565 10562 10558 10553 10549 10545 10540 10535 10530 10525 10521 10517 10512 10507 10502 10497 10493 10489 10485 10482 10479 10476 10474 10471 10468 10465 10462 10460 10457 10454 10452 10450 10448 10447 10445 10444 10443 10442 10441 10441 10441 10441 10440 10440 10441 10442 10444 10447 10449 10450 10452 10455 10457 10460
10652 10650 10649 10646 10643 10640 10637 10635 10631 10627 10625 10622 10620 10617 10613 10610 10606 10603 10601 10599 10595 10592 10589 10584 10580 10577 10573 10569 10566 10562 10559 10555 10552 10548 10543 10539 10534 10529 10523 10519 10514 10510 10505 10500 10496 10491 10487 10483 10480 10477 10474 10471 10469 10466 10464 10462 10459 10456 10453 10451 10449 10447 10445 10443 10441 10440 10439 10438 10437 10436 10436 10436 10436 10436 10436 10436 10438 10440 10442 10444 10446 10448 10451 10454 10456
10641 10640 10638 10636 10632 10629 10627 10624 10619 10616 10614 10612 10609 10606 10604 10600 10597 10594 10591 10588 10585 10581 10578 10575 10571 10567 10563 10560 10557 10553 10550 10546 10542 10537 10532 10527 10522 10517 10512 10507 10503 10499 10494 10489 10485 10481 10478 10475 10472 10469 10466 10464 10461 10459 10457 10455 10453 10450 10448 10446 10444 10442 10440 10438 10436 10435 10434 10432 10432 10431 10431 10431 10431 10431 10431 10432 10433 10435 10438 10440 10443 10445 10447 10450 10453
10630 10629 10627 10624 10621 10618 10616 10613 10609 10606 10604 10602 10599 10597 10594 10591 10587 10584 10580 10577 10574 10571 10568 10566 10562 10557 10554 10552 10548 10543 10539 10535 10530 10525 10519 10514 10509 10505 10501 10496 10492 10488 10484 10480 10476 10473 10470 10467 10465 10462 10459 10457 10455 10453 10451 10449 10447 10444 10442 10441 10439 10437 10435 10433 10431 10430 10429 10428 10427 10426 10426 10427 10427 10426 10427 10427 10429 10431 10433 10436 10439 10441 10443 10446 10449
10619 10617 10616 10613 10610 10608 10605 10602 10599 10597 10594 10592 10589 10586 10583 10580 10577 10574 10570 10568 10564 10560 10558 10556 10553 10548 10544 10541 10536 10531 10526 10521 10516 10511 10506 10501 10497 10494 10490 10487 10483 10479 10475 10471 10467 10465 10462 10460 10457 10455 10453 10450 10448 10446 10444 10443 10441 10439 10437 10436 10434 10432 10430 10428 10427 10426 10424 10423 10423 10422 10422 10422 10422 10422 10422 10423 10425 10427 10429 10432 10435 10437 10440 10443 10446
10608 10606 10605 10602 10599 10597 10595 10592 10589 10586 10584 10582 10578 10575 10571 10569 10566 10563 10560 10557 10554 10550 10547 10544 10540 10535 10530 10526 10521 10517 10512 10508 10503 10499 10495 10490 10487 10484 10481 10478 10474 10470 10466 10462 10459 10457 10455 10453 10451 10449 10447 10444 10442 10440 10438 10436 10435 10433 10432 10431 10429 10427 10426 10424 10423 10421 10420 10419 10418 10418 10417 10417 10417 10417 10418 10419 10420 10423 10425 10428 10431 10433 10436 10439 10442
10598 10597 10594 10591 10589 10586 10584 10581 10578 10576 10574 10571 10567 10564 10560 10557 10554 10552 10549 10546 10543 10538 10534 10530 10526 10522 10517 10513 10509 10505 10501 10497 10493 10489 10485 10481 10477 10474 10472 10469 10466 10462 10458 10455 10452 10450 10448 10446 10445 10443 10440 10438 10436 10434 10432 10431 10429 10428 10427 10426 10424 10422 10421 10419 10418 10417 10416 10415 10414 10413 10413 10413 10413 10413 10413 10414 10416 10419 10421 10424 10427 10430 10432 10436 10439
10588 10586 10584 10581 10579 10576 10573 10570 10568 10567 10564 10561 10557 10554 10551 10548 10545 10542 10539 10536 10532 10527 10523 10519 10514 10510 10506 10502 10498 10494 10490 10486 10483 10479 10476 10472 10469 10467 10464 10461 10458 10454 10451 10449 10446 10443 10441 10440 10438 10436 10434 10432 10430 10428 10427 10425 10424 10423 10422 10420 10419 10418 10416 10415 10414 10413 10412 10411 10410 10409 10409 10409 10409 10409 10409 10410 10412 10414 10417 10420 10423 10426 10429 10432 10436
10577 10575 10573 10570 10568 10565 10562 10560 10558 10556 10554 10551 10548 10545 10542 10539 10536 10533 10529 10526 10522 10517 10512 10507 10503 10500 10496 10492 10487 10483 10480 10476 10473 10471 10467 10464 10462 10459 10457 10454 10450 10447 10445 10443 10441 10438 10436 10434 10432 10430 10428 10426 10424 10423 10422 10420 10419 10418 10417 10415 10414 10413 10412 10411 10410 10409 10408 10408 10407 10406 10406 10406 10406 10405 10406 10406 10408 10410 10412 10415 10418 10422 10425 10428 10432
10566 10565 10563 10560 10557 10554 10551 10550 10548 10546 10543 10540 10537 10534 10531 10528 10525 10522 10518 10515 10510 10505 10501 10496 10493 10489 10486 10482 10478 10475 10471 10468 10465 10463 10460 10457 10455 10452 10450 10447 10444 10441 10439 10437 10435 10433 10431 10429 10426 10424 10422 10420 10419 10418 10417 10416 10415 10413 10412 10410 10409 10408 10408 10407 10406 10405 10405 10404 10403 10403 10403 10403 10402 10402 10402 10403 10404 10406 10408 10411 10414 10417 10421 10425 10428
10555 10554 10552 10551 10548 10544 10542 10539 10537 10535 10532 10529 10526 10523 10520 10517 10514 10511 10507 10503 10499 10495 10490 10486 10482 10479 10475 10472 10469 10467 10464 10461 10458 10456 10453 10451 10448 10446 10444 10441 10438 10435 10433 10430 10429 10427 10426 10424 10421 10419 10417 10415 10414 10413 10412 10411 10410 10408 10407 10406 10405 10404 10404 10403 10402 10402 10401 10401 10400 10400 10400 10400 10399 10399 10399 10400 10401 10402 10405 10407 10410 10413 10416 10420 10424
10546 10544 10542 10540 10538 10536 10533 10530 10527 10524 10521 10518 10515 10512 10509 10506 10503 10500 10497 10493 10489 10484 10480 10476 10473 10469 10466 10463 10460 10458 10456 10454 10451 10449 10447 10444 10442 10440 10438 10436 10433 10430 10427 10425 10423 10422 10421 10419 10417 10415 10412 10411 10409 10409 10408 10407 10405 10404 10403 10401 10400 10400 10400 10399 10398 10398 10397 10397 10397 10397 10397 10397 10397 10397 10397 10397 10397 10399 10401 10403 10406 10409 10412 10416 10420
10537 10534 10532 10530 10528 10525 10523 10520 10517 10514 10511 10508 10505 10502 10499 10496 10493 10490 10486 10482 10478 10474 10470 10467 10464 10461 10458 10455 10453 10451 10449 10447 10445 10443 10440 10438 10436 10434 10432 10430 10428 10426 10423 10420 10418 10417 10416 10414 10412 10411 10409 10407 10405 10404 10403 10402 10401 10399 10398 10397 10396 10396 10396 10395 10395 10394 10394 10394 10394 10394 10394 10394 10394 10394 10394 10394 10395 10396 10397 10400 10402 10405 10408 10412 10415